sat.trackr.live / text

‹ back to catalog

STARLINK-36104

NORAD 66964 · 2025-288F

PAYLOAD ACTIVE UNKNOWN

§ Identity

Operator
Country
US
Launch date
2025-12-08
Launch site
AFETR
Launch vehicle
Mass (kg)
RCS (m²)

Purposes: comms

External: N2YO · Heavens-Above · Gunter

§ Orbital elements

Epoch: 2026-09-20T08:15:39.953088Z

Period
94.27 min
Inclination
42.9993°
Eccentricity
0.0001046
Mean motion
15.27582538 rev/d
Perigee alt
482.3 km
Apogee alt
483.8 km
Semi-major
6,861.2 km
B*
3.8287e-4
RAAN
4.4638°
Arg perigee
249.7937°
Mean anomaly
110.2802°
Rev number
4,505

§ Raw data

STARLINK-361041 66964U 25288F   26263.34421242  .00010289  00000+0  38287-3 0  99972 66964  42.9993   4.4638 0001046 249.7937 110.2802 15.27582538 45050

JSON: /api/v1/satellites/66964 · /tle

For live sub-satellite position, see the globe view (requires WebGL).

§ Visibility from observer

Set your observer location to see the next 7 days of passes ≥ 10°. The values pass through the URL so the page stays shareable.

No JS? Fill the form by hand. The geolocation button needs JavaScript.